ELECTRON KICK STAGE R/B

Satellite information

Favourite Embed

Satellite Type and Status

ROCKET BODYIN ORBIT

Key statistics

Satellite ELECTRON KICK STAGE R/B at a glance.

Uptime

542

Days in orbit

Revolutions

≈ 15.1

Per day

Orbit

SSO

Sun Synchronous Orbit

Inclination

98.0

Latest

Satellite identification and parameters

Extended collection of information and parameters for ELECTRON KICK STAGE R/B.

Object identification

Identified? True

Debris? False

Object name: ELECTRON KICK STAGE R/B

International designator: 2024-114G

Object number (NORAD): 60085

Object ID (CCSDS): 60085

Country: UNITED STATES OF AMERICA (US)

Current information (Y/N): Y

RCS size: MEDIUM

Orbital parameters

Period: 95.311 minutes

Inclination: 97.9663 deg

SMA: 6911.784 km

Apoapsis: 581.482 km

Periapsis: 485.816 km

RAAN: 27.1941 deg

Eccentricy: 0.00692046

Argument of periapsis: 18.139 deg

Mean anomaly: 342.2284 deg

Mean motion: 15.10836676 rev/day

Mean motion (dot): 0.00013025 rev/day2

B* drag term: 0.00074322138 1/REarth

Two-line elements (TLE)

Creation date: Dec. 12, 2025, 10:14 a.m.

Reference frame: TEME

Reference center: EARTH

Epoch: Dec. 12, 2025, 3 a.m. UTC

TLE line 0: 0 ELECTRON KICK STAGE R/B

TLE line 1: 1 60085U 24114G 25346.12513846 .00013025 00000-0 74322-3 0 9993

TLE line 2: 2 60085 97.9663 27.1941 0069205 18.1390 342.2284 15.10836676 81118

Live tracking on map

Real-time ground track for satellite ELECTRON KICK STAGE R/B.

In-orbit conjunctions

A list of the most updated potential collisions computed for object ELECTRON KICK STAGE R/B.

Target Orbit TCA Probability of collision Miss distance Type
FENGYUN 1C DEB SSO 2025-01-30 06:09:05 0.0002003847 355.0 (m) DEBRIS
COSMOS 2251 DEB LEO 2024-10-30 05:48:21 0.0001155942 706.0 (m) DEBRIS

Associated space launch

First batch of five satellites for the French Kinéis IoT constellation designed to operate with 25 nanosatellites of 30 kg each.

ELECTRON KICK STAGE R/B was lifted into orbit during the mission ‘Electron | No Time Toulouse (Kinéis 1-5)’, on board a Electron space rocket.

The launch took place on June 20, 2024, 6:13 p.m. from Rocket Lab Launch Complex 1B.

For more information about the launch, click the button.

Launch to space Electron | No Time Toulouse (Kinéis 1-5)
Electron | No Time Toulouse (Kinéis 1-5)

Agency: Kinéis

Status: Launch Successful

Launch date: June 20, 2024, 6:13 p.m. UTC

Rocket: Electron

Launch pad: Rocket Lab Launch Complex 1B

Location: Rocket Lab Launch Complex 1, Mahia Peninsula, New Zealand

...

Latest news about this satellite

News about space launch
Rocket Report: Electron turns 50, China’s Moon launcher breathes fire

"Most rocket startups are still stuck in the long process of reengineering."

News about space launch
Rocket Lab launches first Kinéis satellites on 50th Electron

Rocket Lab successfully launched the first set of satellites for a French startup June 20 on the 50th flight of its Electron rocket.

News about space launch
Rocket Lab successfully launches its 50th Electron rocket

Rocket Lab's Electron rocket made history by reaching its 50th launch faster than any other commercially developed orbital launch vehicle. Liftoff from New Zealand took place at 6:13 a.m. NZST on Friday, June 21 (2:13 p.m. EDT, 1813 UTC on Thursday, June ...


Newsletter sign-up

Weekly statistics, charts and insights to help you stay on top of the space industry.